TimeCDT,TemperatureF,Dew PointF,Humidity,Sea Level PressureIn,VisibilityMPH,Wind Direction,Wind SpeedMPH,Gust SpeedMPH,PrecipitationIn,Events,Conditions,WindDirDegrees,DateUTC
12:12 AM,35.6,33.8,93,29.76,0.8,Calm,Calm,-,N/A,,Mist,0,2013-03-31 05:12:00
12:33 AM,33.8,30.2,87,29.75,0.2,Calm,Calm,-,N/A,Fog,Fog,0,2013-03-31 05:33:00
12:46 AM,32.0,30.2,93,29.75,0.2,Calm,Calm,-,N/A,Fog,Fog,0,2013-03-31 05:46:00
12:54 AM,32.0,32.0,100,29.80,0.2,Calm,Calm,-,N/A,Fog,Fog,0,2013-03-31 05:54:00
1:08 AM,33.8,32.0,93,29.75,0.5,Calm,Calm,-,N/A,Fog,Fog,0,2013-03-31 06:08:00
1:54 AM,34.0,33.1,96,29.78,0.2,Calm,Calm,-,N/A,Fog,Fog,0,2013-03-31 06:54:00
2:54 AM,34.0,34.0,100,29.76,0.5,West,9.2,-,N/A,Fog,Fog,280,2013-03-31 07:54:00
3:35 AM,33.8,33.8,100,29.71,1.2,West,8.1,-,N/A,,Overcast,280,2013-03-31 08:35:00
3:54 AM,34.0,33.1,96,29.75,2.0,WNW,5.8,-,N/A,,Overcast,290,2013-03-31 08:54:00
4:49 AM,33.8,33.8,100,29.69,3.0,West,5.8,-,N/A,,Overcast,280,2013-03-31 09:49:00
4:54 AM,34.0,33.1,96,29.73,2.5,West,5.8,-,N/A,,Overcast,280,2013-03-31 09:54:00
5:44 AM,33.8,32.0,93,29.68,3.0,West,6.9,-,N/A,,Overcast,280,2013-03-31 10:44:00
5:54 AM,33.1,32.0,96,29.72,4.0,West,10.4,-,N/A,,Overcast,270,2013-03-31 10:54:00
6:54 AM,32.0,30.9,96,29.73,3.0,West,11.5,-,N/A,,Overcast,280,2013-03-31 11:54:00
7:22 AM,32.0,30.2,93,29.68,3.0,WNW,6.9,-,N/A,,Overcast,290,2013-03-31 12:22:00
7:54 AM,33.1,30.9,92,29.72,4.0,WSW,4.6,-,N/A,,Overcast,250,2013-03-31 12:54:00
8:21 AM,33.8,30.2,87,29.66,5.0,West,8.1,16.1,N/A,,Scattered Clouds,280,2013-03-31 13:21:00
8:54 AM,34.0,30.9,89,29.70,6.0,West,12.7,-,N/A,,Clear,270,2013-03-31 13:54:00
9:54 AM,35.1,28.9,78,29.69,7.0,West,12.7,-,N/A,,Mostly Cloudy,280,2013-03-31 14:54:00
10:54 AM,36.0,28.0,73,29.70,8.0,West,21.9,26.5,N/A,,Partly Cloudy,280,2013-03-31 15:54:00
11:26 AM,35.6,28.4,75,29.66,6.0,West,18.4,25.3,N/A,,Haze,270,2013-03-31 16:26:00
11:37 AM,35.6,28.4,75,29.66,6.0,West,19.6,25.3,N/A,,Haze,270,2013-03-31 16:37:00
11:44 AM,35.6,28.4,75,29.66,6.0,West,19.6,25.3,N/A,,Haze,260,2013-03-31 16:44:00
11:54 AM,35.1,28.9,78,29.71,5.0,West,18.4,-,N/A,,Haze,260,2013-03-31 16:54:00
12:44 PM,35.6,28.4,75,29.66,1.8,West,16.1,-,0.00,Snow,Light Snow,280,2013-03-31 17:44:00
12:54 PM,34.0,28.9,82,29.71,2.5,West,16.1,-,0.00,Snow,Light Snow,270,2013-03-31 17:54:00
1:09 PM,35.6,28.4,75,29.66,3.0,West,16.1,-,0.00,,Overcast,270,2013-03-31 18:09:00
1:54 PM,35.1,28.9,78,29.72,4.0,West,15.0,-,0.00,Snow,Light Snow,270,2013-03-31 18:54:00
2:14 PM,37.4,28.4,70,29.66,10.0,West,18.4,25.3,0.00,,Mostly Cloudy,270,2013-03-31 19:14:00
2:23 PM,35.6,26.6,70,29.66,5.0,West,15.0,25.3,0.00,Snow,Light Snow,280,2013-03-31 19:23:00
2:32 PM,35.6,28.4,75,29.67,1.5,WNW,23.0,29.9,0.00,Snow,Light Snow,300,2013-03-31 19:32:00
2:37 PM,33.8,28.4,81,29.67,0.5,West,17.3,29.9,0.00,Fog-Snow,Snow,280,2013-03-31 19:37:00
2:45 PM,33.8,30.2,87,29.68,0.5,NW,15.0,25.3,0.00,Fog-Snow,Snow,310,2013-03-31 19:45:00
2:48 PM,33.8,28.4,81,29.68,1.0,NW,13.8,25.3,0.00,Snow,Light Snow,310,2013-03-31 19:48:00
2:54 PM,34.0,28.0,79,29.72,5.0,WNW,10.4,-,0.00,Snow,Light Snow,300,2013-03-31 19:54:00
3:03 PM,35.6,28.4,75,29.67,10.0,WNW,9.2,-,0.00,,Mostly Cloudy,290,2013-03-31 20:03:00
3:36 PM,33.8,26.6,75,29.68,2.5,NW,21.9,34.5,0.00,Snow,Light Snow,320,2013-03-31 20:36:00
3:43 PM,32.0,28.4,87,29.68,1.0,WNW,11.5,28.8,0.00,Snow,Light Snow,300,2013-03-31 20:43:00
3:54 PM,34.0,28.0,79,29.73,9.0,WNW,9.2,-,0.00,,Overcast,300,2013-03-31 20:54:00
4:54 PM,37.0,19.0,48,29.74,10.0,NNW,11.5,21.9,N/A,,Mostly Cloudy,330,2013-03-31 21:54:00
5:54 PM,35.1,12.9,40,29.78,10.0,NNW,16.1,23.0,N/A,,Mostly Cloudy,340,2013-03-31 22:54:00
7:54 PM,30.9,15.1,52,29.85,10.0,North,9.2,21.9,N/A,,Mostly Cloudy,350,2013-04-01 00:54:00
9:54 PM,28.9,17.1,61,29.91,10.0,North,12.7,20.7,N/A,,Overcast,350,2013-04-01 02:54:00
10:54 PM,28.0,14.0,56,29.93,10.0,NNW,13.8,20.7,0.00,,Overcast,340,2013-04-01 03:54:00
11:54 PM,27.0,12.9,56,29.95,10.0,NNW,10.4,-,N/A,,Overcast,330,2013-04-01 04:54:00